{"data":{"norad_id":26720,"intl_designator":"2001-011B","name":"BSAT-2A","alt_names":[],"object_type":"PAYLOAD","status":"ACTIVE","operator":null,"country":"JPN","launch_date":"2001-03-08","launch_site_code":"FRGUI","launch_vehicle":null,"mission":null,"orbit_class":"UNKNOWN","rcs_meters":15.8866,"size_class":null,"mass_kg":null,"dimensions":null,"purposes":[],"wikipedia_slug":null,"has_3d_model":false,"image_url":null,"decayed_at":null,"tle_current":{"epoch":"2026-05-24T22:38:25.489248Z","epoch_age_seconds":86837,"freshness":"FRESH","line1":"1 26720U 01011B   26144.94335057 -.00000139  00000+0  00000+0 0  9995","line2":"2 26720  10.6852  47.7041 0002391 220.3083 320.7695  0.99180694 91746","mean_motion":0.99180694,"eccentricity":0.0002391,"inclination_deg":10.6852,"raan_deg":47.7041,"arg_perigee_deg":220.3083,"mean_anomaly_deg":320.7695,"bstar":0,"rev_number":9174,"period_min":1451.8954666722,"perigee_km":36085.112666173,"apogee_km":36105.423448471,"semimajor_km":42473.405057322,"source":"CELESTRAK","updated_at":"2026-05-25T13:37:55.025564Z"}}}